COSMOS 2251 DEB, 39109

Orbit data source: Space-Track

COSMOS 2251 DEB, 39109 is space debris in LEO originally from a launch on Wed, 16 Jun 1993 UTC launched from the Plesetsk Missile And Space Complex (PKMTR). The debris from Iridium 33, an American commercial communications satellite, has been tracked extensively since its accidental collision with the defunct Russian satellite Cosmos 2251 in 2009. This event, occurring at high speed in low Earth orbit (LEO), generated thousands of pieces of space debris, significantly increasing the risk of further collisions. The Iridium 33 debris cloud has impacted space traffic management and orbital debris mitigation strategies, making it a subject of ongoing study in space situational awareness.

Loading next visibility...
Identifier
39109, 1993-036BTY
Orbit
LEO
Country
Flag of CISCIS
Related business
Manufacturer
Unknown
Mission
Spacecraft
Bus & Motor
Unknown
Mass
Unknown
Launch date (UTC)
1993-06-16 (33 years ago)
Launch vehicle
Unknown
Launch site
Plesetsk Missile And Space Complex (PKMTR)
Object type
Payload
Rocket body
Debris
Shape & HBR
Unknown shape, 0.1 m
Radar Cross Section
Small (<0.1 m²)

Expand to show TLE details & history
Last TLE update: 2 days ago

TLE from 2 days ago
0 COSMOS 2251 DEB
1 39109U 93036BTY 25353.97964329  .00001835  00000-0  29802-3 0  9991
2 39109  74.0412 211.0292 0059570 312.7483 114.4468 14.70762004652803
Epoch: 2025-12-19T23:30Z
TLE epoch observation values (Epoch: 2025-12-19T23:30:41.180Z)
Latitude
63.01157°
Longitude
163.49677°
Altitude
686.668 km
Speed
7.51 km/s
True Right ascension
16h 19m 55s
True Declination
62° 52' 15"
Sunlit
Object was in daylight at epoch
Visualization orbit readout
Latitude
Unknown
Longitude
Unknown
Altitude
Unknown
Speed
Unknown
Apparent Right ascension
Unknown
Apparent Declination
Unknown
Sunlit
N/A
Visualization observer readout
Local Sidereal Time
17:40:36
Azimuth
Unknown
Elevation
Unknown
Doppler factor
Unknown
Orbital elements
Apogee altitude
698.125 km
Perigee altitude
614.318 km
Semi-major axis
7,034.359 km
Eccentricity
0.00596
Inclination
74.0412°
RAAN
211.0292°
Arg. of periapsis
312.7483°
True anomaly
115.0663°
Mean anomaly
114.4468°
Eccentric anomaly
114.75674°
Mean motion
3.6788 °/min
Orbital period
97.86 mins
BSTAR
0.00029802
Loading maneuver chart data...
Computing Atmospheric mass density...

Documentation

Showing up to 5 results
|